Time,TemperatureF,DewpointF,PressureIn,WindDirection,WindDirectionDegrees,WindSpeedMPH,WindSpeedGustMPH,Humidity,HourlyPrecipIn,Conditions,Clouds,dailyrainin,SolarRadiationWatts/m^2,SoftwareType,DateUTC
2013-01-30 00:01:00,37.0,29.0,-100.00,SW,223,8.0,14.0,74,0.00,,,0.00,1.000000,,2013-01-30 08:01:00,
2013-01-30 00:32:00,37.0,30.0,-100.00,SSW,211,9.0,12.0,75,0.00,,,0.00,1.000000,,2013-01-30 08:32:00,
2013-01-30 00:42:00,37.0,30.0,-100.00,SSW,211,9.0,12.0,75,0.00,,,0.00,1.000000,,2013-01-30 08:42:00,
2013-01-30 00:52:00,37.0,30.0,-100.00,SSW,211,9.0,12.0,75,0.00,,,0.00,1.000000,,2013-01-30 08:52:00,
2013-01-30 01:01:00,37.0,30.0,-100.00,SSW,211,9.0,12.0,75,0.00,,,0.00,1.000000,,2013-01-30 09:01:00,
2013-01-30 01:32:00,38.0,28.0,-100.00,SW,229,9.0,15.0,68,0.00,,,0.00,1.000000,,2013-01-30 09:32:00,
2013-01-30 01:42:00,38.0,28.0,-100.00,SW,229,9.0,15.0,68,0.00,,,0.00,1.000000,,2013-01-30 09:42:00,
2013-01-30 01:52:00,38.0,28.0,-100.00,SW,229,9.0,15.0,68,0.00,,,0.00,1.000000,,2013-01-30 09:52:00,
2013-01-30 02:01:00,38.0,28.0,-100.00,SW,229,9.0,15.0,68,0.00,,,0.00,1.000000,,2013-01-30 10:01:00,
2013-01-30 02:22:00,38.0,29.0,-100.00,SSW,202,5.0,12.0,70,0.00,,,0.00,1.000000,,2013-01-30 10:22:00,
2013-01-30 02:32:00,38.0,29.0,-100.00,SSW,202,5.0,12.0,70,0.00,,,0.00,1.000000,,2013-01-30 10:32:00,
2013-01-30 02:42:00,38.0,29.0,-100.00,SSW,202,5.0,12.0,70,0.00,,,0.00,1.000000,,2013-01-30 10:42:00,
2013-01-30 02:52:00,38.0,29.0,-100.00,SSW,202,5.0,12.0,70,0.00,,,0.00,1.000000,,2013-01-30 10:52:00,
2013-01-30 03:01:00,38.0,29.0,-100.00,SSW,202,5.0,12.0,70,0.00,,,0.00,1.000000,,2013-01-30 11:01:00,
2013-01-30 03:33:00,39.0,28.0,-100.00,SSW,198,6.0,10.0,64,0.00,,,0.00,1.000000,,2013-01-30 11:33:00,
2013-01-30 03:42:00,39.0,28.0,-100.00,SSW,198,6.0,10.0,64,0.00,,,0.00,1.000000,,2013-01-30 11:42:00,
2013-01-30 03:52:00,39.0,28.0,-100.00,SSW,198,6.0,10.0,64,0.00,,,0.00,1.000000,,2013-01-30 11:52:00,
2013-01-30 04:01:00,39.0,28.0,-100.00,SSW,198,6.0,10.0,64,0.00,,,0.00,1.000000,,2013-01-30 12:01:00,
2013-01-30 04:02:00,39.0,30.0,-100.00,SSW,192,5.0,11.0,70,0.00,,,0.00,1.000000,,2013-01-30 12:02:00,
2013-01-30 04:33:00,39.0,30.0,-100.00,SSW,192,5.0,11.0,70,0.00,,,0.00,1.000000,,2013-01-30 12:33:00,
2013-01-30 04:43:00,39.0,30.0,-100.00,SSW,192,5.0,11.0,70,0.00,,,0.00,1.000000,,2013-01-30 12:43:00,
2013-01-30 05:23:00,39.0,30.0,-100.00,SW,222,7.0,10.0,71,0.00,,,0.00,1.000000,,2013-01-30 13:23:00,
2013-01-30 05:33:00,39.0,30.0,-100.00,SW,222,7.0,10.0,71,0.00,,,0.00,1.000000,,2013-01-30 13:33:00,
2013-01-30 05:43:00,39.0,30.0,-100.00,SW,222,7.0,10.0,71,0.00,,,0.00,1.000000,,2013-01-30 13:43:00,
2013-01-30 05:53:00,39.0,30.0,-100.00,SW,222,7.0,10.0,71,0.00,,,0.00,1.000000,,2013-01-30 13:53:00,
2013-01-30 06:01:00,39.0,30.0,-100.00,SW,222,7.0,10.0,71,0.00,,,0.00,1.000000,,2013-01-30 14:01:00,
2013-01-30 06:02:00,40.0,32.0,-100.00,SW,218,7.0,10.0,73,0.00,,,0.00,1.000000,,2013-01-30 14:02:00,
2013-01-30 06:33:00,40.0,32.0,-100.00,SW,218,7.0,10.0,73,0.00,,,0.00,1.000000,,2013-01-30 14:33:00,
2013-01-30 06:43:00,40.0,32.0,-100.00,SW,218,7.0,10.0,73,0.00,,,0.00,1.000000,,2013-01-30 14:43:00,
2013-01-30 06:53:00,40.0,32.0,-100.00,SW,218,7.0,10.0,73,0.00,,,0.00,1.000000,,2013-01-30 14:53:00,
2013-01-30 07:02:00,40.0,31.0,-100.00,SW,235,9.0,16.0,71,0.00,,,0.00,1.000000,,2013-01-30 15:02:00,
2013-01-30 07:33:00,40.0,31.0,-100.00,SW,235,9.0,16.0,71,0.00,,,0.00,1.000000,,2013-01-30 15:33:00,
2013-01-30 07:43:00,40.0,31.0,-100.00,SW,235,9.0,16.0,71,0.00,,,0.00,1.000000,,2013-01-30 15:43:00,
2013-01-30 07:53:00,40.0,31.0,-100.00,SW,235,9.0,16.0,71,0.00,,,0.00,1.000000,,2013-01-30 15:53:00,
2013-01-30 08:33:00,40.0,32.0,-100.00,WSW,237,10.0,17.0,72,0.00,,,0.00,4.000000,,2013-01-30 16:33:00,
2013-01-30 08:42:00,40.0,32.0,-100.00,WSW,237,10.0,17.0,72,0.00,,,0.00,4.000000,,2013-01-30 16:42:00,
2013-01-30 08:52:00,40.0,32.0,-100.00,WSW,237,10.0,17.0,72,0.00,,,0.00,4.000000,,2013-01-30 16:52:00,
2013-01-30 09:01:00,40.0,32.0,-100.00,WSW,237,10.0,17.0,72,0.00,,,0.00,4.000000,,2013-01-30 17:01:00,
2013-01-30 09:02:00,41.0,33.0,-100.00,SW,224,6.0,15.0,72,0.00,,,0.00,28.000000,,2013-01-30 17:02:00,
2013-01-30 09:33:00,41.0,33.0,-100.00,SW,224,6.0,15.0,72,0.00,,,0.00,28.000000,,2013-01-30 17:33:00,
2013-01-30 09:43:00,41.0,33.0,-100.00,SW,224,6.0,15.0,72,0.00,,,0.00,28.000000,,2013-01-30 17:43:00,
2013-01-30 09:53:00,41.0,33.0,-100.00,SW,224,6.0,15.0,72,0.00,,,0.00,28.000000,,2013-01-30 17:53:00,
2013-01-30 10:02:00,43.0,34.0,-100.00,SW,220,7.0,13.0,69,0.00,,,0.00,93.000000,,2013-01-30 18:02:00,
2013-01-30 10:33:00,43.0,34.0,-100.00,SW,220,7.0,13.0,69,0.00,,,0.00,93.000000,,2013-01-30 18:33:00,
2013-01-30 10:43:00,43.0,34.0,-100.00,SW,220,7.0,13.0,69,0.00,,,0.00,93.000000,,2013-01-30 18:43:00,
2013-01-30 10:52:00,43.0,34.0,-100.00,SW,220,7.0,13.0,69,0.00,,,0.00,93.000000,,2013-01-30 18:52:00,
2013-01-30 11:02:00,44.0,33.0,-100.00,WSW,249,9.0,15.0,66,0.00,,,0.00,119.000000,,2013-01-30 19:02:00,
2013-01-30 11:33:00,44.0,33.0,-100.00,WSW,249,9.0,15.0,66,0.00,,,0.00,119.000000,,2013-01-30 19:33:00,
2013-01-30 11:43:00,44.0,33.0,-100.00,WSW,249,9.0,15.0,66,0.00,,,0.00,119.000000,,2013-01-30 19:43:00,
2013-01-30 11:53:00,44.0,33.0,-100.00,WSW,249,9.0,15.0,66,0.00,,,0.00,119.000000,,2013-01-30 19:53:00,
2013-01-30 12:02:00,45.0,34.0,-100.00,West,260,14.0,20.0,64,0.00,,,0.00,156.000000,,2013-01-30 20:02:00,
2013-01-30 12:22:00,45.0,34.0,-100.00,West,260,14.0,20.0,64,0.00,,,0.00,156.000000,,2013-01-30 20:22:00,
2013-01-30 12:33:00,45.0,34.0,-100.00,West,260,14.0,20.0,64,0.00,,,0.00,156.000000,,2013-01-30 20:33:00,
2013-01-30 12:42:00,45.0,34.0,-100.00,West,260,14.0,20.0,64,0.00,,,0.00,156.000000,,2013-01-30 20:42:00,
2013-01-30 12:53:00,45.0,34.0,-100.00,West,260,14.0,20.0,64,0.00,,,0.00,156.000000,,2013-01-30 20:53:00,
2013-01-30 13:02:00,45.0,34.0,-100.00,WSW,252,9.0,19.0,65,0.00,,,0.00,166.000000,,2013-01-30 21:02:00,
2013-01-30 13:23:00,45.0,34.0,-100.00,WSW,252,9.0,19.0,65,0.00,,,0.00,166.000000,,2013-01-30 21:23:00,
2013-01-30 13:32:00,45.0,34.0,-100.00,WSW,252,9.0,19.0,65,0.00,,,0.00,166.000000,,2013-01-30 21:32:00,
2013-01-30 13:43:00,45.0,34.0,-100.00,WSW,252,9.0,19.0,65,0.00,,,0.00,166.000000,,2013-01-30 21:43:00,
2013-01-30 13:52:00,45.0,34.0,-100.00,WSW,252,9.0,19.0,65,0.00,,,0.00,166.000000,,2013-01-30 21:52:00,
2013-01-30 14:22:00,44.0,34.0,-100.00,West,267,12.0,19.0,67,0.00,,,0.00,91.000000,,2013-01-30 22:22:00,
2013-01-30 14:33:00,44.0,34.0,-100.00,West,267,12.0,19.0,67,0.00,,,0.00,91.000000,,2013-01-30 22:33:00,
2013-01-30 14:42:00,44.0,34.0,-100.00,West,267,12.0,19.0,67,0.00,,,0.00,91.000000,,2013-01-30 22:42:00,
2013-01-30 14:52:00,44.0,34.0,-100.00,West,267,12.0,19.0,67,0.00,,,0.00,91.000000,,2013-01-30 22:52:00,
2013-01-30 15:01:00,44.0,34.0,-100.00,West,267,12.0,19.0,67,0.00,,,0.00,91.000000,,2013-01-30 23:01:00,
2013-01-30 15:23:00,44.0,34.0,-100.00,WSW,257,10.0,20.0,67,0.00,,,0.00,79.000000,,2013-01-30 23:23:00,
2013-01-30 15:33:00,44.0,34.0,-100.00,WSW,257,10.0,20.0,67,0.00,,,0.00,79.000000,,2013-01-30 23:33:00,
2013-01-30 15:42:00,44.0,34.0,-100.00,WSW,257,10.0,20.0,67,0.00,,,0.00,79.000000,,2013-01-30 23:42:00,
2013-01-30 15:52:00,44.0,34.0,-100.00,WSW,257,10.0,20.0,67,0.00,,,0.00,79.000000,,2013-01-30 23:52:00,
2013-01-30 16:01:00,44.0,34.0,-100.00,WSW,257,10.0,20.0,67,0.00,,,0.00,79.000000,,2013-01-31 00:01:00,
2013-01-30 16:32:00,45.0,34.0,-100.00,West,259,11.0,20.0,66,0.00,,,0.00,199.000000,,2013-01-31 00:32:00,
2013-01-30 16:42:00,45.0,34.0,-100.00,West,259,11.0,20.0,66,0.00,,,0.00,199.000000,,2013-01-31 00:42:00,
2013-01-30 16:53:00,45.0,34.0,-100.00,West,259,11.0,20.0,66,0.00,,,0.00,199.000000,,2013-01-31 00:53:00,
2013-01-30 17:01:00,45.0,34.0,-100.00,West,259,11.0,20.0,66,0.00,,,0.00,199.000000,,2013-01-31 01:01:00,
2013-01-30 17:32:00,44.0,34.0,-100.00,SW,235,3.0,15.0,67,0.00,,,0.00,50.000000,,2013-01-31 01:32:00,
2013-01-30 17:42:00,44.0,34.0,-100.00,SW,235,3.0,15.0,67,0.00,,,0.00,50.000000,,2013-01-31 01:42:00,
2013-01-30 17:52:00,44.0,34.0,-100.00,SW,235,3.0,15.0,67,0.00,,,0.00,50.000000,,2013-01-31 01:52:00,
2013-01-30 18:01:00,44.0,34.0,-100.00,SW,235,3.0,15.0,67,0.00,,,0.00,50.000000,,2013-01-31 02:01:00,
2013-01-30 18:02:00,42.0,33.0,-100.00,SW,223,3.0,6.0,69,0.00,,,0.00,4.000000,,2013-01-31 02:02:00,
2013-01-30 18:22:00,42.0,33.0,-100.00,SW,223,3.0,6.0,69,0.00,,,0.00,4.000000,,2013-01-31 02:22:00,
2013-01-30 18:32:00,42.0,33.0,-100.00,SW,223,3.0,6.0,69,0.00,,,0.00,4.000000,,2013-01-31 02:32:00,
2013-01-30 18:42:00,42.0,33.0,-100.00,SW,223,3.0,6.0,69,0.00,,,0.00,4.000000,,2013-01-31 02:42:00,
2013-01-30 18:52:00,42.0,33.0,-100.00,SW,223,3.0,6.0,69,0.00,,,0.00,4.000000,,2013-01-31 02:52:00,
2013-01-30 19:02:00,41.0,32.0,-100.00,SW,218,7.0,10.0,70,0.00,,,0.00,1.000000,,2013-01-31 03:02:00,
2013-01-30 19:32:00,41.0,32.0,-100.00,SW,218,7.0,10.0,70,0.00,,,0.00,1.000000,,2013-01-31 03:32:00,
2013-01-30 19:42:00,41.0,32.0,-100.00,SW,218,7.0,10.0,70,0.00,,,0.00,1.000000,,2013-01-31 03:42:00,
2013-01-30 19:52:00,41.0,32.0,-100.00,SW,218,7.0,10.0,70,0.00,,,0.00,1.000000,,2013-01-31 03:52:00,
2013-01-30 20:02:00,40.0,32.0,-100.00,ESE,104,2.0,9.0,74,0.00,,,0.00,1.000000,,2013-01-31 04:02:00,
2013-01-30 20:32:00,40.0,32.0,-100.00,ESE,104,2.0,9.0,74,0.00,,,0.00,1.000000,,2013-01-31 04:32:00,
2013-01-30 20:42:00,40.0,32.0,-100.00,ESE,104,2.0,9.0,74,0.00,,,0.00,1.000000,,2013-01-31 04:42:00,
2013-01-30 20:52:00,40.0,32.0,-100.00,ESE,104,2.0,9.0,74,0.00,,,0.00,1.000000,,2013-01-31 04:52:00,
2013-01-30 21:42:00,39.0,32.0,-100.00,South,183,1.0,8.0,76,0.00,,,0.00,1.000000,,2013-01-31 05:42:00,
2013-01-30 21:52:00,39.0,32.0,-100.00,South,183,1.0,8.0,76,0.00,,,0.00,1.000000,,2013-01-31 05:52:00,
2013-01-30 22:01:00,39.0,32.0,-100.00,South,183,1.0,8.0,76,0.00,,,0.00,1.000000,,2013-01-31 06:01:00,